Regional Weather Roundup
Issued by NWS

Home | Current Version | Previous Version | Text Only | Print | Product List | Glossary On
Versions: 1 2 3 4 5 6 7 8 9 10 11 12 13 14 15 16 17 18 19 20 21 22 23 24 25 26 27 28 29 30 31 32 33 34 35 36 37 38 39 40 41 42 43 44 45 46 47 48 49 50
000
ASUS44 KBMX 221010
RWRAL

ALABAMA REGIONAL WEATHER ROUNDUP
NATIONAL WEATHER SERVICE BIRMINGHAM AL
400 AM CST SAT NOV 22 2014

NOTE: "FAIR" INDICATES FEW OR NO CLOUDS BELOW 12,000 FEET
WITH NO SIGNIFICANT WEATHER AND/OR OBSTRUCTIONS TO VISIBILITY.

THE REMARK "TC" DENOTES TEMPERATURE IN DEGREES CELSIUS.

ALZ001>011-014-016>018-020-221100-
NORTH ALABAMA

CITY           SKY/WX    TMP DP  RH WIND       PRES   REMARKS
MUSCLE SHOALS  MOCLDY    45  34  65 E3        30.36F
HUNTSVILLE     CLEAR     44  29  55 E6        30.37S
DECATUR        CLEAR     41  33  73 E3        30.38S
HALEYVILLE     FAIR      46  35  65 SE7       30.37F
GADSDEN        CLEAR     37  27  65 E6        30.40S WCI  33
$$

ALZ012-013-022-023-030>036-040>044-221100-
WEST CENTRAL ALABAMA

CITY           SKY/WX    TMP DP  RH WIND       PRES   REMARKS
TUSCALOOSA     CLEAR     47  39  74 NE5       30.35F
$$

ALZ015-024>027-033>036-040>044-221100-
CENTRAL ALABAMA

CITY           SKY/WX    TMP DP  RH WIND       PRES   REMARKS
BIRMINGHAM     CLEAR     44  32  62 NE7       30.38S
MONTGOMERY     CLEAR     43  37  79 NE3       30.36R
SHELBY CO ARPT CLEAR     45  38  76 NE5       30.36S
MAXWELL AFB    CLEAR     42  39  91 N2        30.35R
GREENVILLE     FAIR      46  36  68 CALM      30.33R
$$

ALZ019-021-028-029-037-038-045>048-221100-
EAST CENTRAL ALABAMA

CITY           SKY/WX    TMP DP  RH WIND       PRES   REMARKS
ANNISTON       NOT AVBL
ALEXANDER CITY CLEAR     44  34  68 CALM      30.37S
AUBURN         CLEAR     39  32  75 NE6       30.39S WCI  35
$$

ALZ051>064-221100-
SOUTHWEST ALABAMA

CITY           SKY/WX    TMP DP  RH WIND       PRES   REMARKS
MOBILE         CLEAR     48  42  80 E9        30.28S
BROOKLEY FIELD CLEAR     55  45  68 E10       30.29S
EVERGREEN      CLEAR     37  35  92 CALM      30.32S
$$

ALZ049-050-065>069-221100-
SOUTHEAST ALABAMA

CITY           SKY/WX    TMP DP  RH WIND       PRES   REMARKS
DOTHAN         PTCLDY    49  38  65 E8        30.35F
OZARK          PTCLDY    43  38  82 NE8       30.32S
TROY           CLEAR     38  35  89 CALM      30.34F
EUFAULA        MOCLDY    38  36  92 CALM      30.35F
$$



USA.gov is the U.S. government's official web portal to all federal, state and local government web resources and services.